Вернуться в каталог

STARLINK-36510

АктивенСвязьVLEO
NORAD 67407·PAYLOAD·🇺🇸 United States

Запущен Jan 12, 2026 с Cape Canaveral Space Force Station

Loading…

Ближайшие Пролёты (ближайшие 24 часа)

TLE

СвежийSource: CelesTrak SupGP

Эпоха: Sep 14, 2026, 15:09 UTC

1 67407C 26005D   26257.63173611 -.00029281  00000+0 -10606-2 0  2572
2 67407  43.0027 250.9927 0001453 274.0457  31.5718 15.27591486    12

Отслеживайте STARLINK-36510 в реальном времени с AllMySat

Download on the App Store